Location: Brantley
(31.5822°N, 86.2569°W)
Time: 16:40:28
(UTC+00:00)

Injun/Solrad 3 - Pass Details

Date: 24 February 2026
Orbit: 871 x 985 km, 66.8° (Epoch: 11 March)

Event Time Altitude Azimuth Distance (km) Brightness Sun altitude
Rises 02:10:21 0° 319° (NW) 3,618 11.6 -33.0°
Reaches altitude 10° 02:13:18 10° 307° (NW) 2,687 11.0 -33.6°
Maximum altitude 02:18:17 25° 254° (WSW) 1,834 9.9 -34.6°
Drops below altitude 10° 02:23:20 10° 201° (SSW) 2,719 10.4 -35.7°
Enters shadow 02:23:31 - 200° (SSW) 2,771 10.4 -35.7°
Sets 02:26:21 0° 189° (S) 3,670 - -36.3°
